Tracking 31080 objects as of 20-Jul-2025
HD Live streaming from Space Station
objects crossing your sky now

STARLINK-5558

Track STARLINK-5558 now!
10-day predictions
STARLINK-5558 is classified as:


NORAD ID: 55631
Int'l Code: 2023-021D
Perigee: 577.3 km
Apogee: 581.1 km
Inclination: 70.0 °
Period: 96.1 minutes
Semi major axis: 6950 km
RCS: Unknown
Launch date: February 17, 2023
Source: United States (US)
Launch site: AIR FORCE WESTERN TEST RANGE (AFWTR)
Your satellite tracking list
Your tracking list is empty




NASA's NSSDC Master Catalog

Two Line Element Set (TLE):
1 55631U 23021D   25201.38612741  .00000219  00000-0  26142-4 0  9991
2 55631  69.9998  70.0838 0002776 270.2637  89.8204 14.98331617133503
Source of the keplerian elements: AFSPC